Weather History for Millington, TN

Change the Weather History Date:

Wednesday, December 5, 2012

  Actual Average Record
Temperature  
Mean Temperature 56 °F -  
Max Temperature 62 °F 54 °F 75 °F (1998)
Min Temperature 48 °F 38 °F 21 °F (2005)
Degree Days  
Heating Degree Days 9    
Growing Degree Days 6 (Base 50)    
Moisture  
Dew Point 41 °F    
Average Humidity 61    
Maximum Humidity 82    
Minimum Humidity 39    
Precipitation  
Precipitation 0.00 in - - ()
Sea Level Pressure  
Sea Level Pressure 30.21 in    
Wind  
Wind Speed 5 mph (NE)    
Max Wind Speed 13 mph    
Max Gust Speed -    
Visibility 10 miles    
Events      
Averages and records for this station are not official NWS values.
T = Trace of Precipitation, MM = Missing Value Source: NWS Daily Summary

Daily Weather History Graph

Daily Weather History Graph

Search for Another Location

Airport:

Trip Planner

Search our weather history database for the weather conditions in past years. The results will help you decide how hot, cold, wet, or windy it might be!

Date:

Astronomy

Dec. 05, 2012 Rise Set
Actual Time 6:53 AM CST 4:46 PM CST
Civil Twilight 6:25 AM CST 5:14 PM CST
Nautical Twilight 5:54 AM CST 5:46 PM CST
Astronomical Twilight 5:23 AM CST 6:17 PM CST
Moon 11:25 PM CST (12/5) 11:27 AM CST (12/5)
Length of Visible Light 10h 48m
Length of Day
9h 52m
Waning Gibbous, 59% of the Moon is Illuminated
Dec 5
Waning Gibbous
Dec 6
Last Quarter
Dec 13
New
Dec 19
First Quarter
Dec 28
Full

Hourly Weather History & Observations

Time (CST) Temp. Dew Point Humidity Pressure Visibility Wind Dir Wind Speed Gust Speed Precip Events Conditions
12:55 AM 53.6 °F 48.2 °F 82% 30.24 in 10.0 mi NNE 3.5 mph - N/A   Overcast
1:15 AM 53.6 °F 48.2 °F 82% 30.23 in 10.0 mi NNE 3.5 mph - N/A   Overcast
1:55 AM 53.6 °F 46.4 °F 77% 30.23 in 10.0 mi NNE 4.6 mph - N/A   Overcast
2:15 AM 51.8 °F 44.6 °F 76% 30.24 in 10.0 mi North 5.8 mph - N/A   Overcast
2:35 AM 51.8 °F 44.6 °F 76% 30.23 in 10.0 mi NNE 5.8 mph - N/A   Overcast
2:55 AM 51.8 °F 44.6 °F 76% 30.24 in 10.0 mi Variable 4.6 mph - N/A   Overcast
3:55 AM 50.0 °F 44.6 °F 82% 30.23 in 10.0 mi NNE 4.6 mph - N/A   Mostly Cloudy
4:55 AM 51.8 °F 44.6 °F 76% 30.24 in 10.0 mi NNE 4.6 mph - N/A   Overcast
5:55 AM 50.0 °F 44.6 °F 82% 30.26 in 10.0 mi NNE 6.9 mph - N/A   Overcast
6:55 AM 51.8 °F 42.8 °F 71% 30.28 in 10.0 mi NNE 8.1 mph - N/A   Mostly Cloudy
8:55 AM 51.8 °F 42.8 °F 71% 30.29 in 10.0 mi NE 9.2 mph - N/A   Mostly Cloudy
9:55 AM 55.4 °F 41.0 °F 58% 30.29 in 10.0 mi NE 10.4 mph - N/A   Mostly Cloudy
10:55 AM 57.2 °F 41.0 °F 55% 30.27 in 10.0 mi NE 10.4 mph - N/A   Mostly Cloudy
11:55 AM 60.8 °F 41.0 °F 48% 30.24 in 10.0 mi Variable 5.8 mph - N/A   Mostly Cloudy
12:55 PM 62.6 °F 39.2 °F 42% 30.21 in 10.0 mi NE 12.7 mph - N/A   Partly Cloudy
1:55 PM 62.6 °F 37.4 °F 39% 30.19 in 10.0 mi NNE 10.4 mph - N/A   Mostly Cloudy
2:55 PM 60.8 °F 37.4 °F 42% 30.19 in 10.0 mi NE 6.9 mph - N/A   Mostly Cloudy
3:55 PM 60.8 °F 37.4 °F 42% 30.18 in 10.0 mi ENE 4.6 mph - N/A   Mostly Cloudy
4:55 PM 59.0 °F 37.4 °F 45% 30.18 in 10.0 mi NE 3.5 mph - N/A   Mostly Cloudy
5:55 PM 57.2 °F 35.6 °F 44% 30.16 in 10.0 mi NE 3.5 mph - N/A   Partly Cloudy
6:55 PM 53.6 °F 35.6 °F 51% 30.16 in 10.0 mi Calm Calm - N/A   Scattered Clouds
7:55 PM 51.8 °F 35.6 °F 54% 30.16 in 10.0 mi NNE 3.5 mph - N/A   Partly Cloudy
8:55 PM 53.6 °F 35.6 °F 51% 30.15 in 10.0 mi NE 3.5 mph - N/A   Partly Cloudy
9:55 PM 53.6 °F 35.6 °F 51% 30.13 in 10.0 mi ENE 4.6 mph - N/A   Partly Cloudy
10:55 PM 51.8 °F 35.6 °F 54% 30.12 in 10.0 mi ENE 4.6 mph - N/A   Partly Cloudy
11:55 PM 48.2 °F 35.6 °F 62% 30.10 in 10.0 mi ENE 3.5 mph - N/A   Clear